KF5JED-13 Weather Reports


time (UTC)temp
C
wind
direction
speed
KPH
gust
KPH
rain 1hr
cm
rain 24hr
cm
rain mn
cm
humidity
%
barometer
mb
20260505165618 15 49 17.7 29.0 0.00 0.00 0.00 49 1010.8
20260505165114 15 0 25.7 32.2 0.00 0.00 0.00 48 1011.2
20260505164610 15 45 19.3 30.6 0.00 0.00 0.00 48 1011.0
20260505164108 15 33 12.9 24.1 0.00 0.00 0.00 48 1011.0
20260505163606 15 25 12.9 30.6 0.00 0.00 0.00 49 1011.1
20260505163103 15 39 14.5 25.7 0.00 0.00 0.00 49 1011.3
20260505162600 13 30 24.1 27.4 0.00 0.00 0.00 51 1011.2
20260505162058 13 13 22.5 27.4 0.00 0.00 0.00 50 1011.1
20260505161555 14 16 17.7 27.4 0.00 0.00 0.00 49 1011.2
20260505161052 14 17 14.5 30.6 0.00 0.00 0.00 49 1010.9
20260505160550 14 17 24.1 25.7 0.00 0.00 0.00 47 1011.0
20260505153026 13 11 20.9 32.2 0.00 0.00 0.00 48 1010.4
20260505152523 13 7 29.0 32.2 0.00 0.00 0.00 49 1010.3
20260505152019 13 14 25.7 30.6 0.00 0.00 0.00 49 1010.1
20260505151514 13 34 29.0 29.0 0.00 0.00 0.00 49 1010.0
20260505151012 13 352 22.5 25.7 0.00 0.00 0.00 47 1010.1
20260505150508 12 21 17.7 37.0 0.00 0.00 0.00 49 1010.2
20260505140433 11 16 20.9 30.6 0.00 0.00 0.00 51 1009.9
20260505124847 12 353 19.3 27.4 0.00 0.00 0.00 53 1008.0
20260505124344 12 351 17.7 25.7 0.00 0.00 0.00 54 1008.1
20260505123839 12 343 24.1 33.8 0.00 0.00 0.00 54 1007.8
20260505123337 12 340 19.3 30.6 0.00 0.00 0.00 54 1007.8
20260505122832 12 2 19.3 25.7 0.00 0.00 0.00 54 1007.7
20260505122330 12 353 19.3 22.5 0.00 0.00 0.00 54 1007.3
20260505121826 12 351 16.1 27.4 0.00 0.00 0.00 54 1007.6
20260505121324 12 15 20.9 30.6 0.00 0.00 0.00 55 1007.2
20260505120820 12 3 19.3 27.4 0.00 0.00 0.00 55 1007.1
20260505120316 12 19 24.1 29.0 0.00 0.00 0.00 55 1007.3
20260505115814 12 8 19.3 30.6 0.00 0.00 0.00 56 1007.3
20260505115312 12 359 22.5 24.1 0.00 0.00 0.00 56 1007.2
20260505114809 12 359 20.9 29.0 0.00 0.00 0.00 56 1007.0
20260505114305 12 1 20.9 25.7 0.00 0.00 0.00 56 1007.2
20260505113757 12 21 24.1 29.0 0.00 0.00 0.00 56 1007.1
20260505113253 12 18 19.3 24.1 0.00 0.00 0.00 57 1007.2
20260505112748 13 354 20.9 35.4 0.00 0.00 0.00 57 1007.0
20260505112246 13 343 17.7 29.0 0.00 0.00 0.00 58 1007.1
20260505111741 13 3 30.6 32.2 0.00 0.00 0.00 58 1007.0
20260505111237 13 8 19.3 22.5 0.00 0.00 0.00 58 1007.0
20260505110733 13 0 17.7 30.6 0.00 0.00 0.00 58 1006.8
20260505110231 13 352 19.3 35.4 0.00 0.00 0.00 58 1006.7
20260505102207 15 329 20.9 33.8 0.00 0.00 0.00 48 1006.2
20260505101705 16 334 24.1 37.0 0.00 0.00 0.00 44 1005.8
20260505101201 16 350 29.0 38.6 0.00 0.00 0.00 41 1005.8
20260505100657 17 328 30.6 41.8 0.00 0.00 0.00 37 1005.6
20260505100154 17 315 20.9 37.0 0.00 0.00 0.00 34 1005.7
20260505095650 18 335 27.4 38.6 0.00 0.00 0.00 30 1005.6
20260505095148 18 318 17.7 30.6 0.00 0.00 0.00 29 1005.3
20260505094643 18 330 12.9 19.3 0.00 0.00 0.00 29 1005.2
20260505094140 17 284 9.7 12.9 0.00 0.00 0.00 31 1005.0
20260505093636 17 275 8.0 14.5 0.00 0.00 0.00 31 1004.8
20260505093134 17 287 6.4 14.5 0.00 0.00 0.00 31 1004.9
20260505092631 17 305 12.9 14.5 0.00 0.00 0.00 31 1005.2
20260505092130 18 305 12.9 16.1 0.00 0.00 0.00 30 1004.9
20260505091626 18 318 8.0 9.7 0.00 0.00 0.00 30 1004.9
20260505091124 18 216 4.8 11.3 0.00 0.00 0.00 30 1004.4
20260505090621 18 222 11.3 12.9 0.00 0.00 0.00 30 1004.2
20260505090119 18 230 6.4 12.9 0.00 0.00 0.00 29 1004.3
20260505085617 19 216 6.4 11.3 0.00 0.00 0.00 29 1004.2
20260505085115 19 233 1.6 6.4 0.00 0.00 0.00 29 1004.2
20260505084612 20 240 4.8 14.5 0.00 0.00 0.00 28 1004.1
20260505084111 20 262 3.2 12.9 0.00 0.00 0.00 28 1004.1
20260505083608 20 222 9.7 14.5 0.00 0.00 0.00 27 1003.9
20260505083104 20 235 9.7 19.3 0.00 0.00 0.00 27 1004.1
20260505082600 20 232 11.3 16.1 0.00 0.00 0.00 27 1004.1
20260505082057 20 234 6.4 12.9 0.00 0.00 0.00 27 1004.0
20260505081553 20 227 12.9 19.3 0.00 0.00 0.00 27 1004.2
20260505081050 20 267 4.8 9.7 0.00 0.00 0.00 27 1004.4
20260505080546 20 232 6.4 11.3 0.00 0.00 0.00 26 1004.3
20260505080044 20 248 4.8 16.1 0.00 0.00 0.00 26 1004.2
20260505075539 21 230 14.5 17.7 0.00 0.00 0.00 25 1004.3
20260505075036 21 221 8.0 17.7 0.00 0.00 0.00 25 1004.3
20260505074533 21 224 12.9 24.1 0.00 0.00 0.00 25 1004.4
20260505074030 21 216 11.3 17.7 0.00 0.00 0.00 25 1004.4
20260505073528 21 221 12.9 27.4 0.00 0.00 0.00 24 1004.2
20260505073026 21 220 12.9 22.5 0.00 0.00 0.00 24 1004.3
20260505072521 21 238 12.9 24.1 0.00 0.00 0.00 24 1004.1
20260505072018 21 225 20.9 27.4 0.00 0.00 0.00 24 1004.1
20260505071513 21 222 14.5 27.4 0.00 0.00 0.00 24 1004.2
20260505071012 21 237 20.9 32.2 0.00 0.00 0.00 25 1004.2
20260505070509 21 229 19.3 25.7 0.00 0.00 0.00 25 1004.3
20260505070005 22 226 14.5 30.6 0.00 0.00 0.00 24 1004.4
20260505065501 21 234 14.5 30.6 0.00 0.00 0.00 24 1004.5
20260505064957 22 226 14.5 27.4 0.00 0.00 0.00 24 1004.3
20260505064454 22 234 14.5 29.0 0.00 0.00 0.00 24 1004.4
20260505063953 22 233 11.3 27.4 0.00 0.00 0.00 24 1004.7
20260505063449 22 249 16.1 27.4 0.00 0.00 0.00 24 1004.3
20260505062945 22 241 14.5 27.4 0.00 0.00 0.00 24 1004.3
20260505062443 22 244 19.3 29.0 0.00 0.00 0.00 24 1004.5
20260505061939 22 223 17.7 35.4 0.00 0.00 0.00 23 1004.5
20260505061438 22 220 27.4 32.2 0.00 0.00 0.00 23 1004.4
20260505060935 22 240 22.5 35.4 0.00 0.00 0.00 23 1004.5
20260505060432 22 225 19.3 29.0 0.00 0.00 0.00 23 1004.5
20260505055928 22 228 17.7 33.8 0.00 0.00 0.00 23 1004.5
20260505055424 22 229 25.7 30.6 0.00 0.00 0.00 23 1004.4
20260505054921 22 226 25.7 29.0 0.00 0.00 0.00 23 1004.4
20260505054418 22 244 22.5 32.2 0.00 0.00 0.00 23 1004.2
20260505053916 22 221 16.1 32.2 0.00 0.00 0.00 23 1004.4
20260505053413 22 230 22.5 30.6 0.00 0.00 0.00 23 1004.4
20260505052910 22 236 22.5 33.8 0.00 0.00 0.00 23 1004.5
20260505052407 22 228 17.7 30.6 0.00 0.00 0.00 23 1004.3
20260505051904 22 224 20.9 33.8 0.00 0.00 0.00 23 1004.5
20260505051401 22 228 16.1 35.4 0.00 0.00 0.00 24 1004.5
20260505050859 22 226 17.7 29.0 0.00 0.00 0.00 24 1004.4
20260505050357 22 224 16.1 30.6 0.00 0.00 0.00 23 1004.5
20260505041325 22 228 16.1 25.7 0.00 0.00 0.00 24 1004.5
20260505040822 23 218 17.7 29.0 0.00 0.00 0.00 24 1004.9
20260505040320 23 229 17.7 30.6 0.00 0.00 0.00 24 1004.7
20260505035816 23 218 20.9 33.8 0.00 0.00 0.00 24 1004.7
20260505035311 23 227 17.7 29.0 0.00 0.00 0.00 24 1004.5
20260505034808 23 234 16.1 37.0 0.00 0.00 0.00 23 1004.5
20260505034300 23 218 11.3 30.6 0.00 0.00 0.00 23 1004.7
20260505033756 23 206 12.9 27.4 0.00 0.00 0.00 23 1004.9
20260505033254 23 229 19.3 27.4 0.00 0.00 0.00 23 1004.7
20260505032752 23 221 14.5 27.4 0.00 0.00 0.00 23 1004.7
20260505032248 23 221 14.5 29.0 0.00 0.00 0.00 23 1004.7
20260505031745 23 232 17.7 24.1 0.00 0.00 0.00 22 1004.7
20260505031241 23 227 22.5 24.1 0.00 0.00 0.00 21 1004.8
20260505030738 23 234 22.5 27.4 0.00 0.00 0.00 21 1004.8
20260505030235 23 233 14.5 24.1 0.00 0.00 0.00 20 1004.7
20260505025730 23 234 17.7 25.7 0.00 0.00 0.00 19 1004.7
20260505025229 23 227 17.7 22.5 0.00 0.00 0.00 18 1004.9
20260505024727 23 213 14.5 22.5 0.00 0.00 0.00 18 1004.8
20260505024224 24 202 14.5 20.9 0.00 0.00 0.00 18 1004.7
20260505023721 25 221 14.5 32.2 0.00 0.00 0.00 17 1004.7
20260505023218 25 228 22.5 25.7 0.00 0.00 0.00 17 1004.5
20260505022716 25 229 19.3 24.1 0.00 0.00 0.00 16 1004.3
20260505022212 25 226 12.9 24.1 0.00 0.00 0.00 16 1004.5
20260505021709 25 233 16.1 25.7 0.00 0.00 0.00 16 1004.5
20260505021206 25 229 29.0 30.6 0.00 0.00 0.00 16 1004.2
20260505020702 25 222 19.3 27.4 0.00 0.00 0.00 16 1004.4
20260505020157 25 231 17.7 25.7 0.00 0.00 0.00 16 1004.3
20260505015655 25 227 25.7 33.8 0.00 0.00 0.00 15 1004.5
20260505015151 25 229 20.9 29.0 0.00 0.00 0.00 15 1004.3
20260505014648 25 222 17.7 24.1 0.00 0.00 0.00 15 1004.3
20260505014145 26 232 16.1 37.0 0.00 0.00 0.00 15 1004.3
20260505013643 26 212 12.9 29.0 0.00 0.00 0.00 15 1004.2
20260505013139 26 224 11.3 24.1 0.00 0.00 0.00 16 1004.1
20260505012638 26 213 12.9 20.9 0.00 0.00 0.00 16 1004.2
20260505012135 26 238 17.7 30.6 0.00 0.00 0.00 16 1004.2
20260505011630 26 230 19.3 30.6 0.00 0.00 0.00 15 1004.0
20260505011128 26 224 19.3 29.0 0.00 0.00 0.00 15 1004.1
20260505010628 26 231 16.1 27.4 0.00 0.00 0.00 15 1004.1
20260505010125 27 223 16.1 24.1 0.00 0.00 0.00 15 1004.1
20260505005621 27 221 24.1 35.4 0.00 0.00 0.00 14 1004.0
20260505005118 27 232 27.4 32.2 0.00 0.00 0.00 14 1004.2
20260505004615 27 245 14.5 29.0 0.00 0.00 0.00 14 1004.2
20260505004112 27 246 17.7 37.0 0.00 0.00 0.00 14 1004.2
20260505003609 27 227 27.4 37.0 0.00 0.00 0.00 14 1004.3
20260505003107 27 221 27.4 29.0 0.00 0.00 0.00 14 1004.3
20260505002602 27 228 27.4 30.6 0.00 0.00 0.00 14 1004.3
20260505002101 27 227 30.6 30.6 0.00 0.00 0.00 14 1004.3
20260505001558 28 229 27.4 32.2 0.00 0.00 0.00 14 1004.4
20260505001055 28 230 24.1 37.0 0.00 0.00 0.00 13 1004.3
20260505000552 28 236 20.9 37.0 0.00 0.00 0.00 13 1004.3
20260505000050 28 227 25.7 38.6 0.00 0.00 0.00 13 1004.2
20260504235546 28 234 11.3 35.4 0.00 0.00 0.00 13 1004.3
20260504235043 28 229 25.7 45.1 0.00 0.00 0.00 13 1004.3
20260504234540 28 234 24.1 33.8 0.00 0.00 0.00 13 1004.4
20260504234037 28 223 20.9 43.5 0.00 0.00 0.00 14 1004.3
20260504233532 28 214 24.1 35.4 0.00 0.00 0.00 16 1004.1
20260504233029 28 233 19.3 32.2 0.00 0.00 0.00 17 1004.2
20260504232526 28 235 16.1 29.0 0.00 0.00 0.00 17 1004.3
20260504232024 28 224 14.5 22.5 0.00 0.00 0.00 20 1004.1
20260504231521 28 226 9.7 20.9 0.00 0.00 0.00 21 1004.2
20260504231017 29 228 16.1 22.5 0.00 0.00 0.00 20 1004.1
20260504230513 28 246 8.0 29.0 0.00 0.00 0.00 20 1004.3
20260504230013 28 246 19.3 24.1 0.00 0.00 0.00 21 1004.2
20260504225509 28 241 16.1 27.4 0.00 0.00 0.00 22 1004.5
20260504225006 29 229 17.7 24.1 0.00 0.00 0.00 21 1004.4
20260504224502 29 253 14.5 38.6 0.00 0.00 0.00 22 1004.5
20260504223959 29 228 20.9 35.4 0.00 0.00 0.00 22 1004.7
20260504223456 30 238 14.5 30.6 0.00 0.00 0.00 21 1004.7
20260504222951 29 226 8.0 19.3 0.00 0.00 0.00 21 1004.7
20260504222449 29 243 14.5 29.0 0.00 0.00 0.00 20 1005.0
20260504221947 30 259 6.4 19.3 0.00 0.00 0.00 19 1004.8
20260504221444 29 299 6.4 20.9 0.00 0.00 0.00 20 1004.9
20260504220941 30 247 19.3 24.1 0.00 0.00 0.00 20 1004.9
20260504220437 30 230 14.5 29.0 0.00 0.00 0.00 20 1004.9
20260504215934 30 213 17.7 25.7 0.00 0.00 0.00 19 1004.9
20260504215431 30 238 14.5 20.9 0.00 0.00 0.00 19 1004.9
20260504214927 29 246 6.4 24.1 0.00 0.00 0.00 20 1005.0
20260504214424 30 250 9.7 30.6 0.00 0.00 0.00 20 1005.1
20260504213920 29 287 9.7 22.5 0.00 0.00 0.00 20 1005.2
20260504213416 29 286 19.3 27.4 0.00 0.00 0.00 20 1005.2
20260504212914 29 234 20.9 35.4 0.00 0.00 0.00 20 1005.2
20260504212409 29 206 25.7 37.0 0.00 0.00 0.00 20 1005.2
20260504211908 29 241 12.9 30.6 0.00 0.00 0.00 21 1005.3
20260504211404 29 226 14.5 27.4 0.00 0.00 0.00 21 1005.8
20260504210901 29 233 19.3 30.6 0.00 0.00 0.00 21 1005.7
20260504210358 29 232 16.1 32.2 0.00 0.00 0.00 21 1005.8
20260504205855 29 235 17.7 37.0 0.00 0.00 0.00 20 1005.9
20260504205353 29 230 20.9 30.6 0.00 0.00 0.00 20 1006.0
20260504204851 29 234 9.7 19.3 0.00 0.00 0.00 23 1005.9
20260504204349 28 239 12.9 22.5 0.00 0.00 0.00 22 1006.0
20260504203848 28 227 20.9 33.8 0.00 0.00 0.00 22 1006.1
20260504203344 29 225 19.3 30.6 0.00 0.00 0.00 22 1006.0
20260504202840 29 322 4.8 14.5 0.00 0.00 0.00 23 1006.2
20260504202338 30 224 11.3 24.1 0.00 0.00 0.00 23 1006.1
20260504201834 29 230 12.9 24.1 0.00 0.00 0.00 23 1006.4
20260504201332 29 225 22.5 35.4 0.00 0.00 0.00 22 1006.4
20260504200829 28 236 17.7 27.4 0.00 0.00 0.00 22 1006.6
20260504200325 28 247 9.7 33.8 0.00 0.00 0.00 23 1006.6
20260504195822 28 231 16.1 20.9 0.00 0.00 0.00 23 1006.7
20260504195317 28 229 16.1 24.1 0.00 0.00 0.00 23 1006.7
20260504194814 28 234 16.1 29.0 0.00 0.00 0.00 23 1006.6
20260504194310 28 247 12.9 24.1 0.00 0.00 0.00 23 1006.9
20260504193807 28 227 20.9 22.5 0.00 0.00 0.00 24 1007.0
20260504193304 28 227 12.9 25.7 0.00 0.00 0.00 25 1007.1
20260504192803 28 308 6.4 19.3 0.00 0.00 0.00 26 1007.1
20260504192300 28 274 9.7 17.7 0.00 0.00 0.00 25 1007.1
20260504191759 27 238 11.3 22.5 0.00 0.00 0.00 26 1007.0
20260504191256 28 232 12.9 16.1 0.00 0.00 0.00 25 1007.1
20260504190751 28 303 16.1 29.0 0.00 0.00 0.00 25 1007.2
20260504190248 28 271 3.2 11.3 0.00 0.00 0.00 26 1007.4
20260504185744 27 226 9.7 24.1 0.00 0.00 0.00 26 1007.3
20260504185241 28 232 12.9 20.9 0.00 0.00 0.00 26 1007.4
20260504184737 28 295 12.9 29.0 0.00 0.00 0.00 25 1007.7
20260504184233 28 295 9.7 22.5 0.00 0.00 0.00 26 1007.6
20260504183729 27 286 6.4 20.9 0.00 0.00 0.00 26 1007.8
20260504183226 28 239 12.9 30.6 0.00 0.00 0.00 25 1008.0
20260504182724 28 206 6.4 27.4 0.00 0.00 0.00 25 1007.8
20260504182221 27 267 9.7 22.5 0.00 0.00 0.00 25 1008.1
20260504181719 27 248 6.4 25.7 0.00 0.00 0.00 26 1008.2
20260504181216 27 237 9.7 24.1 0.00 0.00 0.00 25 1008.3
20260504180715 27 278 19.3 22.5 0.00 0.00 0.00 24 1008.4
20260504180213 27 313 4.8 19.3 0.00 0.00 0.00 25 1008.6
20260504175710 27 289 19.3 27.4 0.00 0.00 0.00 24 1008.6
20260504175207 27 294 19.3 30.6 0.00 0.00 0.00 26 1008.9
20260504174705 27 231 27.4 29.0 0.00 0.00 0.00 27 1008.7
20260504174203 27 235 20.9 27.4 0.00 0.00 0.00 27 1008.9
20260504173659 27 233 9.7 27.4 0.00 0.00 0.00 28 1008.9
20260504173156 27 323 24.1 33.8 0.00 0.00 0.00 26 1008.9
20260504172652 27 292 8.0 24.1 0.00 0.00 0.00 28 1009.2
20260504172149 27 230 22.5 25.7 0.00 0.00 0.00 27 1009.1
20260504171645 26 220 20.9 25.7 0.00 0.00 0.00 27 1009.0
20260504171143 27 240 11.3 25.7 0.00 0.00 0.00 28 1009.0
20260504170639 27 227 22.5 24.1 0.00 0.00 0.00 27 1009.2
20260504170137 27 286 12.9 24.1 0.00 0.00 0.00 26 1009.2